When you browse on this site, cookies collect data to enhance your experience and personalize the content and advertising you see.
Visit our Privacy Policy to learn more. By continuing to use the site, you agree to this use of cookies and data.
  • In Romania
  • List of Countries
  • For 7 days
  • Water Temperature
  • Weather Map
  • Weather Widgets
  • user-avatar
    Login

    Hourly Weather Rio de Janeiro

    Today, 20 September, Friday

    Time Temperature Precipitation Wind Pressure Humidity
    00:00 +26°C° 0 mm 1 mps 755 mmHg 86%
    01:00 +26°C° 0 mm 1 mps 755 mmHg 83%
    02:00 +26°C° 0 mm 1 mps 754 mmHg 80%
    03:00 +26°C° 0 mm 1 mps 754 mmHg 80%
    04:00 +26°C° 0 mm 1 mps 755 mmHg 75%
    05:00 +26°C° 0 mm 1 mps 755 mmHg 71%
    06:00 +26°C° 0 mm 2 mps 755 mmHg 66%
    07:00 +29°C° 0 mm 2 mps 756 mmHg 57%
    08:00 +31°C° 0 mm 2 mps 756 mmHg 48%
    09:00 +35°C° 0 mm 3 mps 757 mmHg 39%
    10:00 +34°C° 0 mm 4 mps 757 mmHg 44%
    11:00 +34°C° 0 mm 5 mps 756 mmHg 49%
    12:00 +33°C° 0 mm 6 mps 756 mmHg 54%
    13:00 +34°C° 0 mm 5 mps 756 mmHg 52%
    14:00 +34°C° 0 mm 3 mps 755 mmHg 50%
    15:00 +35°C° 0 mm 2 mps 755 mmHg 48%
    16:00 +32°C° 0 mm 2 mps 755 mmHg 55%
    17:00 +30°C° 0 mm 3 mps 756 mmHg 61%
    18:00 +29°C° 0 mm 3 mps 756 mmHg 67%
    19:00 +28°C° 0.1 mm 3 mps 757 mmHg 71%
    20:00 +27°C° 0.1 mm 3 mps 758 mmHg 75%
    21:00 +26°C° 0.1 mm 2 mps 759 mmHg 79%
    22:00 +26°C° 0 mm 2 mps 759 mmHg 80%
    23:00 +26°C° 0 mm 3 mps 759 mmHg 81%

    Tomorrow, 21 September, Saturday

    Time Temperature Precipitation Wind Pressure Humidity
    00:00 +26°C° 0 mm 3 mps 760 mmHg 83%
    01:00 +25°C° 0 mm 3 mps 759 mmHg 84%
    02:00 +25°C° 0 mm 2 mps 759 mmHg 85%
    03:00 +25°C° 0 mm 2 mps 759 mmHg 86%
    04:00 +25°C° 0 mm 2 mps 760 mmHg 85%
    05:00 +25°C° 0 mm 2 mps 760 mmHg 85%
    06:00 +25°C° 0 mm 1 mps 760 mmHg 85%
    07:00 +26°C° 0 mm 1 mps 761 mmHg 82%
    08:00 +26°C° 0 mm 1 mps 761 mmHg 79%
    09:00 +27°C° 0 mm 1 mps 761 mmHg 76%
    10:00 +28°C° 0 mm 1 mps 760 mmHg 70%
    11:00 +29°C° 0 mm 2 mps 760 mmHg 64%
    12:00 +31°C° 0 mm 3 mps 760 mmHg 58%
    13:00 +30°C° 0 mm 3 mps 759 mmHg 59%
    14:00 +30°C° 0 mm 3 mps 759 mmHg 61%
    15:00 +29°C° 0 mm 4 mps 758 mmHg 62%
    16:00 +28°C° 0 mm 3 mps 759 mmHg 67%
    17:00 +27°C° 0 mm 3 mps 759 mmHg 72%
    18:00 +26°C° 0 mm 3 mps 760 mmHg 77%
    19:00 +26°C° 0.1 mm 2 mps 760 mmHg 79%
    20:00 +26°C° 0.1 mm 2 mps 761 mmHg 81%
    21:00 +25°C° 0.1 mm 2 mps 761 mmHg 82%
    22:00 +25°C° 0.1 mm 2 mps 761 mmHg 83%
    23:00 +25°C° 0.1 mm 1 mps 761 mmHg 84%

    Day after tomorrow, 22 September, Sunday

    Time Temperature Precipitation Wind Pressure Humidity
    00:00 +25°C° 0.1 mm 1 mps 761 mmHg 85%
    01:00 +25°C° 0.1 mm 1 mps 760 mmHg 85%
    02:00 +25°C° 0.1 mm 1 mps 760 mmHg 86%
    03:00 +25°C° 0.1 mm 2 mps 760 mmHg 86%
    04:00 +24°C° 0.2 mm 2 mps 760 mmHg 87%
    05:00 +24°C° 0.2 mm 2 mps 761 mmHg 88%
    06:00 +24°C° 0.2 mm 2 mps 761 mmHg 89%
    07:00 +24°C° 0.3 mm 2 mps 761 mmHg 89%
    08:00 +25°C° 0.3 mm 2 mps 762 mmHg 88%
    09:00 +25°C° 0.3 mm 2 mps 762 mmHg 87%
    10:00 +25°C° 0.2 mm 3 mps 762 mmHg 86%
    11:00 +25°C° 0.2 mm 3 mps 762 mmHg 85%
    12:00 +25°C° 0.2 mm 3 mps 762 mmHg 83%
    13:00 +25°C° 0.4 mm 3 mps 762 mmHg 84%
    14:00 +23°C° 0.4 mm 4 mps 762 mmHg 85%
    15:00 +23°C° 0.4 mm 4 mps 762 mmHg 85%
    16:00 +23°C° 0.4 mm 4 mps 762 mmHg 86%
    17:00 +22°C° 0.4 mm 4 mps 763 mmHg 86%
    18:00 +22°C° 0.4 mm 4 mps 763 mmHg 86%
    19:00 +22°C° 0.5 mm 4 mps 764 mmHg 86%
    20:00 +22°C° 0.5 mm 4 mps 765 mmHg 85%
    21:00 +21°C° 0.5 mm 4 mps 765 mmHg 85%
    22:00 +21°C° 0.5 mm 4 mps 765 mmHg 85%
    23:00 +21°C° 0.5 mm 4 mps 765 mmHg 86%

    23 September, Monday

    Time Temperature Precipitation Wind Pressure Humidity
    00:00 +21°C° 0.5 mm 3 mps 765 mmHg 86%
    01:00 +21°C° 0.4 mm 4 mps 765 mmHg 86%
    02:00 +20°C° 0.4 mm 4 mps 765 mmHg 86%
    03:00 +20°C° 0.4 mm 4 mps 765 mmHg 86%
    04:00 +20°C° 0.4 mm 4 mps 765 mmHg 85%
    05:00 +20°C° 0.4 mm 4 mps 765 mmHg 85%
    06:00 +20°C° 0.4 mm 4 mps 765 mmHg 85%
    07:00 +20°C° 0.2 mm 4 mps 766 mmHg 83%
    08:00 +20°C° 0.2 mm 4 mps 766 mmHg 82%
    09:00 +20°C° 0.2 mm 4 mps 767 mmHg 80%
    10:00 +20°C° 0.1 mm 5 mps 767 mmHg 78%
    11:00 +21°C° 0.1 mm 5 mps 767 mmHg 76%
    12:00 +21°C° 0.1 mm 5 mps 766 mmHg 74%
    13:00 +21°C° 0 mm 5 mps 766 mmHg 72%
    14:00 +21°C° 0 mm 4 mps 766 mmHg 71%
    15:00 +21°C° 0 mm 4 mps 765 mmHg 70%
    16:00 +21°C° 0 mm 4 mps 765 mmHg 70%
    17:00 +20°C° 0 mm 4 mps 766 mmHg 71%
    18:00 +20°C° 0 mm 4 mps 766 mmHg 71%
    19:00 +20°C° 0 mm 4 mps 766 mmHg 72%
    20:00 +20°C° 0 mm 4 mps 766 mmHg 73%
    21:00 +19°C° 0 mm 4 mps 766 mmHg 74%
    22:00 +19°C° 0 mm 4 mps 766 mmHg 74%
    23:00 +19°C° 0 mm 3 mps 766 mmHg 75%

    24 September, Tuesday

    Time Temperature Precipitation Wind Pressure Humidity
    00:00 +19°C° 0 mm 3 mps 765 mmHg 75%
    01:00 +19°C° 0 mm 3 mps 765 mmHg 77%
    02:00 +18°C° 0 mm 3 mps 764 mmHg 78%
    03:00 +18°C° 0 mm 3 mps 764 mmHg 79%
    04:00 +18°C° 0 mm 3 mps 763 mmHg 80%
    05:00 +18°C° 0 mm 3 mps 763 mmHg 80%
    06:00 +18°C° 0 mm 3 mps 763 mmHg 81%
    07:00 +20°C° 0 mm 3 mps 763 mmHg 73%
    08:00 +22°C° 0 mm 3 mps 763 mmHg 65%
    09:00 +25°C° 0 mm 2 mps 763 mmHg 58%
    10:00 +26°C° 0 mm 2 mps 762 mmHg 53%
    11:00 +28°C° 0 mm 2 mps 761 mmHg 49%
    12:00 +30°C° 0 mm 2 mps 760 mmHg 44%
    13:00 +31°C° 0 mm 3 mps 758 mmHg 43%
    14:00 +31°C° 0 mm 3 mps 757 mmHg 42%
    15:00 +33°C° 0 mm 4 mps 755 mmHg 42%
    16:00 +32°C° 0 mm 4 mps 756 mmHg 47%
    17:00 +29°C° 0 mm 4 mps 756 mmHg 52%
    18:00 +28°C° 0 mm 4 mps 756 mmHg 57%
    19:00 +26°C° 1.8 mm 4 mps 756 mmHg 66%
    20:00 +25°C° 1.8 mm 3 mps 757 mmHg 74%
    21:00 +24°C° 1.8 mm 2 mps 758 mmHg 83%
    22:00 +24°C° 4.3 mm 3 mps 758 mmHg 85%
    23:00 +22°C° 4.3 mm 4 mps 758 mmHg 87%

    25 September, Wednesday

    Time Temperature Precipitation Wind Pressure Humidity
    00:00 +22°C° 4.3 mm 4 mps 758 mmHg 88%
    01:00 +21°C° 0.9 mm 5 mps 758 mmHg 88%
    02:00 +21°C° 0.9 mm 5 mps 758 mmHg 88%
    03:00 +21°C° 0.9 mm 5 mps 758 mmHg 88%
    04:00 +21°C° 0.6 mm 5 mps 758 mmHg 88%
    05:00 +20°C° 0.6 mm 4 mps 758 mmHg 89%
    06:00 +20°C° 0.6 mm 3 mps 758 mmHg 89%
    07:00 +20°C° 1.2 mm 3 mps 759 mmHg 89%
    08:00 +20°C° 1.2 mm 3 mps 760 mmHg 89%
    09:00 +20°C° 1.2 mm 4 mps 760 mmHg 89%
    10:00 +21°C° 0.9 mm 3 mps 760 mmHg 87%
    11:00 +21°C° 0.9 mm 3 mps 760 mmHg 86%
    12:00 +21°C° 0.9 mm 2 mps 760 mmHg 84%
    13:00 +21°C° 0.4 mm 2 mps 760 mmHg 82%
    14:00 +21°C° 0.4 mm 2 mps 760 mmHg 80%
    15:00 +22°C° 0.4 mm 3 mps 760 mmHg 78%
    16:00 +21°C° 0.1 mm 2 mps 760 mmHg 78%
    17:00 +21°C° 0.1 mm 2 mps 760 mmHg 78%
    18:00 +21°C° 0.1 mm 2 mps 761 mmHg 77%
    19:00 +20°C° 0 mm 2 mps 761 mmHg 79%
    20:00 +20°C° 0 mm 2 mps 761 mmHg 80%
    21:00 +21°C° 0 mm 1 mps 762 mmHg 81%
    22:00 +20°C° 0.1 mm 1 mps 762 mmHg 82%
    23:00 +20°C° 0.1 mm 1 mps 762 mmHg 83%
    Show more